Погода в Спитаке

Армения     40˚49′50″N   44˚16′14″E
темп.,
°C
ветер,
м/с
пор.,
м/с
влажн.,
%
обл.,
%
осадки,
мм/ч
давл.,
гПа
погр.,
м
5 декабря, сб
сб501:00−4˚вюв018826 0.0 102942
04:00−5˚вюв118724 0.0 102837
07:00−6˚ю118618 0.0 102825
10:00−4˚в117929 0.0 1028197
13:00−1˚всв126682 0.0 1025716
16:00−2˚св128091 0.1 1023376
19:00−4˚св129498 0.2 102557
22:00−5˚всв229692 0.3 102693
6 декабря, вс
вс601:00−5˚св229595 0.1 1025110
04:00−6˚всв229794 0.2 102580
07:00−6˚всв229790 0.1 102560
10:00−5˚всв238789 0.1 1025272
13:00−3˚св337599 0.1 1024587
16:00−4˚св3480100 0.3 1023526
19:00−6˚св339395 0.3 1026249
22:00−7˚св239295 0.3 1027227
7 декабря, пн
пн701:00−7˚св239297 0.1 1028232
04:00−8˚всв239598 0.3 1028148
07:00−8˚всв2295100 0.1 1029152
10:00−7˚всв228595 0.1 1030263
13:00−4˚всв237497 0.1 1028542
16:00−5˚всв228099 0.2 1027401
19:00−7˚в129188 0.1 102980
22:00−7˚вюв128693 0.1 103055
8 декабря, вт
вт801:00−7˚ююв118698 0.0 103030
04:00−7˚ююз128686 0.0 102857
07:00−7˚юз228985 0.0 102959
10:00−5˚ююз128992 0.3 1029171
13:00−4˚зюз0188100 0.8 1027218
16:00−3˚з018599 1.0 1027289
19:00−5˚ююз119596 0.1 102830
22:00−6˚ю119184 0.1 102923
9 декабря, ср
ср901:00−5˚ююз119075 0.0 102943
04:00−6˚ююз229158 0.0 102925
07:00−6˚юз229297 0.0 102836
10:00−4˚юз128999 0.1 1028106
13:00−2˚з1282100 0.0 1026287
16:00−2˚з1188100 0.1 1025189
19:00−3˚з1197100 0.6 102635
22:00−3˚зсз0198100 1.1 102723